Regional Weather Roundup
Issued by NWS Charleston, WV

Home | Current Version | Previous Version | Graphics & Text | Print | Product List | Glossary On
Versions: 1 2 3 4 5 6 7 8 9 10 11 12 13 14 15 16 17 18 19 20 21 22 23 24 25 26 27 28 29 30 31 32 33 34 35 36 37 38 39 40 41 42 43 44 45 46 47 48 49 50
989
ASUS41 KRLX 232010
RWRRLX
West Virginia Regional Weather Roundup
National Weather Service Charleston WV
400 PM EDT FRI JUN 23 2017

Note: "fair" indicates few or no clouds below 12,000 feet with no
significant weather and/or obstructions to visibility.

WVZ003-232100-
Northern Panhandle of West Virginia

CITY           SKY/WX    TMP DP  RH WIND       PRES   REMARKS
WHEELING       LGT RAIN  69  66  90 SW8       29.72R FOG
$$

WVZ009-232100-
Northwest West Virginia

CITY           SKY/WX    TMP DP  RH WIND       PRES   REMARKS
PARKERSBURG    MOSUNNY   83  73  72 SW15G26   29.71F
$$

WVZ006-232100-
Western West Virginia

CITY           SKY/WX    TMP DP  RH WIND       PRES   REMARKS
HUNTINGTON     PTSUNNY   83  71  67 SW10G21   29.75F
$$

WVZ015-232100-
West Central West Virginia

CITY           SKY/WX    TMP DP  RH WIND       PRES   REMARKS
CHARLESTON     PTSUNNY   83  69  62 S12G25    29.77F
$$

WVZ022-031-232100-
North Central West Virginia

CITY           SKY/WX    TMP DP  RH WIND       PRES   REMARKS
CLARKSBURG     PTSUNNY   80  69  69 SW25G32   29.74F
MORGANTOWN     PTSUNNY   84  68  58 SW10G21   29.69F
$$

WVZ025-035-042-045-232100-
Southern West Virginia

CITY           SKY/WX    TMP DP  RH WIND       PRES   REMARKS
BECKLEY        PTSUNNY   77  64  64 SW15G24   29.91F
LOGAN            N/A     79  70  73 CALM      29.84F
BLUEFIELD      SUNNY     79  60  52 W28G38    29.95F
LEWISBURG      CLOUDY    76  65  68 SW13G25   29.90F
$$

WVZ047-232100-
Northern Mountains of West Virginia

CITY           SKY/WX    TMP DP  RH WIND       PRES   REMARKS
ELKINS         MOSUNNY   81  64  56 SW14      29.82F
$$

WVZ052-232100-
Eastern Panhandle of West Virginia

CITY           SKY/WX    TMP DP  RH WIND       PRES   REMARKS
MARTINSBURG    CLOUDY    85  70  60 SW15G22   29.70F
PETERSBURG     MOSUNNY   85  71  61 S13G18    29.74F
$$




USA.gov is the U.S. government's official web portal to all federal, state and local government web resources and services.